Hourly Weather Aathal

Today, 16 January, Saturday

Time Temperature Precipitation Wind Pressure Humidity
00:00 -7°C° 0 mm 0 mps 719 mmHg 93%
01:00 -7°C° 0 mm 1 mps 719 mmHg 93%
02:00 -7°C° 0 mm 1 mps 719 mmHg 92%
03:00 -7°C° 0 mm 1 mps 719 mmHg 91%
04:00 -8°C° 0 mm 1 mps 719 mmHg 91%
05:00 -8°C° 0 mm 1 mps 719 mmHg 90%
06:00 -8°C° 0 mm 1 mps 719 mmHg 89%
07:00 -9°C° 0 mm 0 mps 719 mmHg 89%
08:00 -8°C° 0 mm 0 mps 719 mmHg 88%
09:00 -6°C° 0 mm 0 mps 719 mmHg 87%
10:00 -5°C° 0 mm 0 mps 719 mmHg 85%
11:00 -4°C° 0 mm 0 mps 719 mmHg 84%
12:00 -3°C° 0 mm 0 mps 718 mmHg 82%
13:00 -1°C° 0 mm 1 mps 718 mmHg 79%
14:00 -1°C° 0 mm 1 mps 717 mmHg 83%
15:00 -3°C° 0 mm 0 mps 717 mmHg 86%
16:00 -3°C° 0 mm 0 mps 717 mmHg 89%
17:00 -3°C° 0 mm 1 mps 717 mmHg 88%
18:00 -3°C° 0 mm 1 mps 717 mmHg 88%
19:00 -4°C° 0 mm 1 mps 716 mmHg 87%
20:00 -4°C° 0 mm 1 mps 716 mmHg 86%
21:00 -3°C° 0 mm 1 mps 716 mmHg 85%
22:00 -3°C° 0 mm 1 mps 716 mmHg 85%
23:00 -2°C° 0.2 mm 1 mps 715 mmHg 86%

Tomorrow, 17 January, Sunday

Time Temperature Precipitation Wind Pressure Humidity
00:00 -2°C° 0.2 mm 1 mps 715 mmHg 87%
01:00 -1°C° 0.2 mm 1 mps 714 mmHg 88%
02:00 -1°C° 0.5 mm 1 mps 713 mmHg 91%
03:00 -1°C° 0.5 mm 1 mps 713 mmHg 94%
04:00 -1°C° 0.5 mm 1 mps 712 mmHg 97%
05:00 0°C° 0.6 mm 1 mps 712 mmHg 97%
06:00 -1°C° 0.6 mm 2 mps 712 mmHg 97%
07:00 -1°C° 0.6 mm 2 mps 712 mmHg 98%
08:00 0°C° 0.3 mm 3 mps 712 mmHg 98%
09:00 0°C° 0.3 mm 3 mps 712 mmHg 98%
10:00 0°C° 0.3 mm 3 mps 712 mmHg 98%
11:00 0°C° 0.8 mm 3 mps 713 mmHg 98%
12:00 0°C° 0.8 mm 3 mps 713 mmHg 98%
13:00 0°C° 0.8 mm 3 mps 713 mmHg 98%
14:00 0°C° 0.8 mm 3 mps 713 mmHg 99%
15:00 0°C° 0.8 mm 3 mps 713 mmHg 99%
16:00 +1°C° 0.8 mm 2 mps 714 mmHg 99%
17:00 +1°C° 0.7 mm 2 mps 715 mmHg 99%
18:00 +1°C° 0.7 mm 2 mps 715 mmHg 99%
19:00 +1°C° 0.7 mm 2 mps 716 mmHg 98%
20:00 -1°C° 0.3 mm 2 mps 717 mmHg 98%
21:00 -1°C° 0.3 mm 2 mps 717 mmHg 98%
22:00 -1°C° 0.3 mm 2 mps 718 mmHg 98%
23:00 -1°C° 0.2 mm 2 mps 718 mmHg 98%

Day after tomorrow, 18 January, Monday

Time Temperature Precipitation Wind Pressure Humidity
00:00 -2°C° 0.2 mm 2 mps 719 mmHg 97%
01:00 0°C° 0.2 mm 1 mps 719 mmHg 97%
02:00 -1°C° 0.1 mm 1 mps 719 mmHg 97%
03:00 -1°C° 0.1 mm 1 mps 719 mmHg 96%
04:00 -1°C° 0.1 mm 1 mps 719 mmHg 96%
05:00 -1°C° 0.1 mm 1 mps 719 mmHg 96%
06:00 -2°C° 0.1 mm 1 mps 720 mmHg 96%
07:00 -2°C° 0.1 mm 1 mps 720 mmHg 96%
08:00 -1°C° 0 mm 1 mps 720 mmHg 95%
09:00 -1°C° 0 mm 1 mps 720 mmHg 94%
10:00 0°C° 0 mm 1 mps 720 mmHg 93%
11:00 +1°C° 0 mm 1 mps 720 mmHg 92%
12:00 +1°C° 0 mm 1 mps 720 mmHg 91%
13:00 +2°C° 0 mm 1 mps 720 mmHg 90%
14:00 +2°C° 0 mm 1 mps 719 mmHg 91%
15:00 +1°C° 0 mm 1 mps 719 mmHg 92%
16:00 +1°C° 0 mm 1 mps 719 mmHg 93%
17:00 0°C° 0 mm 1 mps 719 mmHg 93%
18:00 -1°C° 0 mm 1 mps 719 mmHg 92%
19:00 -2°C° 0 mm 1 mps 720 mmHg 92%
20:00 -2°C° 0 mm 1 mps 719 mmHg 90%
21:00 -2°C° 0 mm 1 mps 719 mmHg 88%
22:00 -3°C° 0 mm 1 mps 719 mmHg 86%
23:00 -3°C° 0 mm 1 mps 719 mmHg 85%

19 January, Tuesday

Time Temperature Precipitation Wind Pressure Humidity
00:00 -3°C° 0 mm 1 mps 718 mmHg 84%
01:00 -3°C° 0 mm 1 mps 718 mmHg 82%
02:00 -3°C° 0 mm 1 mps 718 mmHg 81%
03:00 -3°C° 0 mm 1 mps 717 mmHg 80%
04:00 -3°C° 0 mm 1 mps 716 mmHg 79%
05:00 -2°C° 0 mm 1 mps 716 mmHg 79%
06:00 -2°C° 0 mm 1 mps 716 mmHg 78%
07:00 -2°C° 0 mm 1 mps 716 mmHg 77%
08:00 -1°C° 0 mm 1 mps 716 mmHg 77%
09:00 0°C° 0 mm 1 mps 715 mmHg 77%
10:00 +1°C° 0 mm 1 mps 715 mmHg 77%
11:00 +2°C° 0 mm 1 mps 715 mmHg 82%
12:00 +3°C° 0 mm 1 mps 714 mmHg 86%
13:00 +4°C° 0 mm 1 mps 714 mmHg 90%
14:00 +4°C° 0 mm 1 mps 714 mmHg 87%
15:00 +4°C° 0 mm 1 mps 713 mmHg 85%
16:00 +4°C° 0 mm 1 mps 713 mmHg 82%
17:00 +3°C° 0 mm 1 mps 713 mmHg 81%
18:00 +1°C° 0 mm 1 mps 713 mmHg 79%
19:00 -2°C° 0 mm 2 mps 713 mmHg 78%
20:00 -2°C° 0 mm 2 mps 713 mmHg 78%
21:00 -2°C° 0 mm 2 mps 713 mmHg 77%
22:00 -3°C° 0 mm 2 mps 713 mmHg 77%
23:00 -3°C° 0 mm 2 mps 712 mmHg 77%

20 January, Wednesday

Time Temperature Precipitation Wind Pressure Humidity
00:00 -3°C° 0 mm 2 mps 712 mmHg 77%
01:00 -3°C° 0 mm 2 mps 712 mmHg 77%
02:00 -3°C° 0 mm 2 mps 712 mmHg 78%
03:00 -3°C° 0 mm 2 mps 711 mmHg 79%
04:00 -3°C° 0 mm 2 mps 711 mmHg 79%
05:00 -3°C° 0 mm 2 mps 711 mmHg 79%
06:00 -3°C° 0 mm 2 mps 711 mmHg 80%
07:00 -2°C° 0 mm 2 mps 710 mmHg 80%
08:00 -2°C° 0 mm 2 mps 710 mmHg 80%
09:00 -1°C° 0 mm 2 mps 710 mmHg 81%
10:00 +1°C° 0 mm 2 mps 709 mmHg 81%
11:00 +2°C° 0 mm 2 mps 709 mmHg 84%
12:00 +4°C° 0 mm 1 mps 709 mmHg 86%
13:00 +4°C° 0 mm 1 mps 708 mmHg 88%
14:00 +4°C° 0 mm 1 mps 707 mmHg 88%
15:00 +3°C° 0 mm 2 mps 707 mmHg 88%
16:00 +3°C° 0 mm 2 mps 706 mmHg 88%
17:00 +2°C° 0 mm 2 mps 706 mmHg 87%
18:00 +1°C° 0 mm 2 mps 706 mmHg 86%
19:00 -1°C° 0 mm 2 mps 706 mmHg 85%
20:00 -1°C° 0 mm 2 mps 706 mmHg 85%
21:00 -1°C° 0 mm 2 mps 706 mmHg 85%
22:00 -1°C° 0 mm 2 mps 705 mmHg 85%
23:00 -1°C° 0 mm 2 mps 705 mmHg 85%

21 January, Thursday

Time Temperature Precipitation Wind Pressure Humidity
00:00 -1°C° 0 mm 2 mps 705 mmHg 85%
01:00 -1°C° 0 mm 2 mps 704 mmHg 85%
02:00 -1°C° 0 mm 2 mps 704 mmHg 84%
03:00 +1°C° 0 mm 2 mps 704 mmHg 84%
04:00 +1°C° 0 mm 2 mps 703 mmHg 84%
05:00 +1°C° 0 mm 2 mps 703 mmHg 85%
06:00 +1°C° 0 mm 2 mps 703 mmHg 86%
07:00 -1°C° 0 mm 2 mps 703 mmHg 87%
08:00 +1°C° 0.2 mm 2 mps 703 mmHg 89%
09:00 +1°C° 0.2 mm 2 mps 704 mmHg 92%
10:00 +1°C° 0.2 mm 3 mps 705 mmHg 94%
11:00 +2°C° 0.7 mm 2 mps 705 mmHg 95%
12:00 +2°C° 0.7 mm 2 mps 705 mmHg 96%
13:00 +4°C° 0.7 mm 1 mps 705 mmHg 98%
14:00 +4°C° 0 mm 1 mps 705 mmHg 98%
15:00 +4°C° 0 mm 1 mps 705 mmHg 98%
16:00 +4°C° 0 mm 1 mps 704 mmHg 98%
17:00 +3°C° 0 mm 1 mps 704 mmHg 95%
18:00 +2°C° 0 mm 2 mps 704 mmHg 93%
19:00 +1°C° 0 mm 2 mps 704 mmHg 91%
20:00 +1°C° 0 mm 2 mps 704 mmHg 90%
21:00 +1°C° 0 mm 2 mps 704 mmHg 90%
22:00 -1°C° 0 mm 2 mps 704 mmHg 89%
23:00 +1°C° 0 mm 1 mps 704 mmHg 88%
Show more